TimeEDT,TemperatureF,Dew PointF,Humidity,Sea Level PressureIn,VisibilityMPH,Wind Direction,Wind SpeedMPH,Gust SpeedMPH,PrecipitationIn,Events,Conditions,WindDirDegrees,DateUTC
12:53 AM,75.0,72.0,90,29.80,10.0,Calm,Calm,-,N/A,,Scattered Clouds,0,2011-10-11 04:53:00
1:53 AM,75.0,72.0,90,29.79,10.0,Calm,Calm,-,N/A,,Scattered Clouds,0,2011-10-11 05:53:00
2:53 AM,75.0,72.0,90,29.78,10.0,Calm,Calm,-,N/A,,Mostly Cloudy,0,2011-10-11 06:53:00
3:53 AM,75.0,72.0,90,29.77,10.0,Calm,Calm,-,N/A,,Mostly Cloudy,0,2011-10-11 07:53:00
4:53 AM,75.0,72.0,90,29.77,10.0,Calm,Calm,-,N/A,,Scattered Clouds,0,2011-10-11 08:53:00
5:34 AM,75.2,71.6,89,29.78,10.0,Calm,Calm,-,N/A,,Mostly Cloudy,0,2011-10-11 09:34:00
5:53 AM,75.2,73.4,94,29.78,10.0,Calm,Calm,-,N/A,,Mostly Cloudy,0,2011-10-11 09:53:00
6:53 AM,75.0,73.0,94,29.80,10.0,SE,3.5,-,N/A,,Scattered Clouds,140,2011-10-11 10:53:00
7:53 AM,75.0,73.0,94,29.81,10.0,SE,3.5,-,N/A,,Scattered Clouds,130,2011-10-11 11:53:00
8:49 AM,77.0,73.4,89,29.83,10.0,SSE,5.8,-,N/A,,Scattered Clouds,150,2011-10-11 12:49:00
8:53 AM,77.0,73.4,89,29.84,10.0,SSE,4.6,-,N/A,,Scattered Clouds,160,2011-10-11 12:53:00
9:53 AM,79.0,73.9,84,29.84,10.0,Calm,Calm,-,N/A,,Scattered Clouds,0,2011-10-11 13:53:00
10:53 AM,81.0,73.0,77,29.85,10.0,Variable,4.6,-,N/A,,Scattered Clouds,0,2011-10-11 14:53:00
11:53 AM,81.0,73.0,77,29.85,10.0,South,6.9,-,N/A,,Scattered Clouds,190,2011-10-11 15:53:00
12:53 PM,82.0,73.0,74,29.84,10.0,SSW,8.1,-,N/A,,Scattered Clouds,210,2011-10-11 16:53:00
1:53 PM,84.0,71.1,65,29.82,10.0,WSW,9.2,-,N/A,,Scattered Clouds,240,2011-10-11 17:53:00
2:53 PM,84.2,68.0,58,29.81,10.0,WSW,8.1,-,N/A,,Scattered Clouds,240,2011-10-11 18:53:00
3:53 PM,84.0,70.0,63,29.79,10.0,SW,10.4,-,N/A,,Scattered Clouds,230,2011-10-11 19:53:00
4:53 PM,82.9,69.1,63,29.79,10.0,SW,10.4,-,N/A,,Scattered Clouds,230,2011-10-11 20:53:00
5:53 PM,82.0,70.0,67,29.80,10.0,WSW,8.1,-,N/A,,Partly Cloudy,240,2011-10-11 21:53:00
6:53 PM,79.0,70.0,74,29.81,10.0,SW,9.2,-,N/A,,Partly Cloudy,230,2011-10-11 22:53:00
7:53 PM,78.1,69.1,74,29.82,10.0,SW,6.9,-,N/A,,Partly Cloudy,220,2011-10-11 23:53:00
8:53 PM,77.0,69.1,76,29.84,10.0,SSW,5.8,-,N/A,,Partly Cloudy,210,2011-10-12 00:53:00
9:53 PM,75.9,70.0,82,29.85,10.0,South,3.5,-,N/A,,Partly Cloudy,190,2011-10-12 01:53:00
10:53 PM,75.9,70.0,82,29.86,10.0,SSW,5.8,-,N/A,,Clear,200,2011-10-12 02:53:00
11:53 PM,75.9,71.1,85,29.86,10.0,SSW,4.6,-,N/A,,Clear,200,2011-10-12 03:53:00